This demonstration page uses our WeatherBlox Daily Observations layout. Learn more.

Left ArrowRight Arrow

Hourly Observations for September 22, 2015

Temp ( °F °C ) Dew Point ( °F °C ) Humidity (%) Winds ( mph kmh ) Pressure ( in mb ) Visibility ( mi km ) Precip ( " mm )
12:53 am 00:53 Clear 73 22.8 55 12.8 53 53 NW 3 6 29.74 1007 10 16 0.00 0.00
1:53 am 01:53 Clear 73 22.8 53 11.7 50 50 N 6 9 29.74 1007 10 16 0.00 0.00
2:53 am 02:53 Clear 74 23.3 51 10.6 45 45 N 6 9 29.74 1007 10 16 0.00 0.00
3:53 am 03:53 Clear 72 22.2 52 11.1 50 50 N 8 13 29.75 1007 10 16 0.00 0.00
4:53 am 04:53 Clear 72 22.2 50 10 46 46 N 6 9 29.76 1008 10 16 0.00 0.00
5:53 am 05:53 Clear 72 22.2 48 8.9 43 43 N 10 17 29.78 1008 10 16 0.00 0.00
6:53 am 06:53 Sunny 71 21.7 49 9.4 46 46 NNW 7 11 29.80 1009 10 16 0.00 0.00
7:53 am 07:53 Sunny 75 23.9 48 8.9 39 39 NNW 8 13 29.82 1010 10 16 0.00 0.00
8:53 am 08:53 Sunny 78 25.6 50 10 37 37 NW 8 13 29.83 1010 10 16 0.00 0.00
9:53 am 09:53 Sunny 81 27.2 49 9.4 33 33 W 8 13 29.85 1011 10 16 0.00 0.00
10:53 am 10:53 Sunny 85 29.4 50 10 30 30 W 9 15 29.86 1011 10 16 0.00 0.00
11:53 am 11:53 Sunny 88 31.1 48 8.9 25 25 WSW 10 17 29.85 1011 10 16 0.00 0.00
12:53 pm 12:53 Sunny 91 32.8 46 7.8 21 21 W 9 15 29.84 1011 10 16 0.00 0.00
1:53 pm 13:53 Sunny 95 35 44 6.7 17 17 NW 12 19 29.82 1010 10 16 0.00 0.00
2:53 pm 14:53 Sunny 96 35.6 41 5 15 15 NW 13 20 29.80 1009 10 16 0.00 0.00
3:53 pm 15:53 Mostly Sunny 97 36.1 43 6.1 16 16 NW 10 17 29.80 1009 10 16 0.00 0.00
4:53 pm 16:53 Mostly Sunny 96 35.6 43 6.1 16 16 NW 9 15 29.79 1009 10 16 0.00 0.00
5:53 pm 17:53 Mostly Sunny 93 33.9 47 8.3 21 21 NW 8 13 29.79 1009 10 16 0.00 0.00
6:53 pm 18:53 Mostly Sunny 87 30.6 44 6.7 22 22 WNW 12 19 29.80 1009 10 16 0.00 0.00
7:53 pm 19:53 Clear 80 26.7 48 8.9 33 33 WNW 9 15 29.83 1010 10 16 0.00 0.00
8:53 pm 20:53 Clear 74 23.3 50 10 43 43 WNW 9 15 29.85 1011 10 16 0.00 0.00
9:53 pm 21:53 Clear 72 22.2 50 10 46 46 WNW 9 15 29.86 1011 10 16 0.00 0.00
10:53 pm 22:53 Clear 70 21.1 49 9.4 47 47 WNW 9 15 29.87 1012 10 16 0.00 0.00
11:53 pm 23:53 Clear 67 19.4 48 8.9 51 51 WNW 5 7 29.88 1012 10 16 0.00 0.00

Powered by Vaisala Xweather